User: anonymous   Login
Location: Muenchen
(48.1800°N, 11.5800°E)
Time: 08:50:44
(UTC+02:00)
Language:

Tiros 1 - Orbit

View from above orbital plane
View from above orbital plane
View from above satellite
View from above satellite

Ground track
Ground track

The orbit data is extracted from the following two-line orbital elements,

1 00029U 60002B   16272.08841848  .00000004  00000-0  31690-4 0  9995
2 00029  48.3792 238.0627 0024115 183.6503 176.4236 14.74098464 18233
Epoch (UTC): 28 September 2016 02:07:19
Eccentricity: 0.0024115
inclination: 48.3792°
perigee height: 631 km
apogee height: 665 km
right ascension of ascending node: 238.0627°
argument of perigee: 183.6503°
revolutions per day: 14.74098464
mean anomaly at epoch: 176.4236°
orbit number at epoch: 1823

The dashed part of the orbit path shows where the satellite is in the earth's shadow,  

DLR